TimeCDT,TemperatureF,Dew PointF,Humidity,Sea Level PressureIn,VisibilityMPH,Wind Direction,Wind SpeedMPH,Gust SpeedMPH,PrecipitationIn,Events,Conditions,WindDirDegrees,DateUTC
12:12 AM,62.8,62.6,99,29.87,0.2,Calm,Calm,-,N/A,Fog,Fog,0,2013-08-06 05:12:00
12:33 AM,62.2,62.1,99,29.88,0.2,South,4.6,-,N/A,Fog,Fog,170,2013-08-06 05:33:00
12:53 AM,62.1,61.7,99,29.87,0.2,Calm,Calm,-,N/A,Fog,Fog,0,2013-08-06 05:53:00
1:13 AM,61.9,61.7,99,29.87,0.2,SSW,4.6,-,N/A,Fog,Fog,200,2013-08-06 06:13:00
1:33 AM,61.9,61.5,99,29.87,0.2,SSW,5.8,-,N/A,Fog,Fog,210,2013-08-06 06:33:00
1:53 AM,62.8,62.4,99,29.87,0.5,SW,4.6,-,N/A,Fog,Fog,220,2013-08-06 06:53:00
2:12 AM,62.1,61.7,99,29.86,0.2,SSW,6.9,-,N/A,Fog,Fog,200,2013-08-06 07:12:00
2:33 AM,63.3,63.0,99,29.87,0.2,SSW,6.9,-,N/A,Fog,Fog,210,2013-08-06 07:33:00
2:53 AM,63.9,63.5,99,29.88,0.2,SW,8.1,-,N/A,Fog,Fog,220,2013-08-06 07:53:00
3:13 AM,64.0,63.7,99,29.86,0.2,SSW,4.6,-,N/A,Fog,Fog,210,2013-08-06 08:13:00
3:33 AM,63.9,63.5,99,29.87,0.2,Calm,Calm,-,N/A,Fog,Fog,0,2013-08-06 08:33:00
3:53 AM,63.9,63.5,99,29.87,0.2,NNW,3.5,-,N/A,Fog,Fog,330,2013-08-06 08:53:00
4:13 AM,64.8,64.4,99,29.87,0.8,Calm,Calm,-,N/A,,Overcast,0,2013-08-06 09:13:00
4:33 AM,64.0,63.7,99,29.86,1.0,SSW,4.6,-,N/A,,Overcast,210,2013-08-06 09:33:00
4:53 AM,63.5,63.0,98,29.84,0.2,Calm,Calm,-,N/A,Fog,Fog,0,2013-08-06 09:53:00
5:13 AM,63.5,63.0,98,29.84,0.2,Calm,Calm,-,N/A,Fog,Fog,0,2013-08-06 10:13:00
5:33 AM,62.6,62.2,99,29.84,0.2,Calm,Calm,-,N/A,Fog,Fog,0,2013-08-06 10:33:00
5:53 AM,61.5,61.0,98,29.84,0.2,Calm,Calm,-,0.02,Fog,Fog,0,2013-08-06 10:53:00
6:13 AM,61.3,61.0,99,29.85,4.0,Calm,Calm,-,N/A,,Clear,0,2013-08-06 11:13:00
6:32 AM,61.3,61.0,99,29.86,7.0,WSW,3.5,-,N/A,,Clear,240,2013-08-06 11:32:00
6:53 AM,61.7,61.3,99,29.86,10.0,West,3.5,-,N/A,,Clear,270,2013-08-06 11:53:00
7:13 AM,62.4,62.1,99,29.87,4.0,Calm,Calm,-,N/A,,Clear,0,2013-08-06 12:13:00
7:33 AM,63.5,63.0,98,29.87,7.0,Calm,Calm,-,N/A,,Clear,0,2013-08-06 12:33:00
7:53 AM,64.0,63.7,99,29.89,4.0,Calm,Calm,-,N/A,,Clear,0,2013-08-06 12:53:00
8:13 AM,64.9,64.6,99,29.88,10.0,Calm,Calm,-,N/A,,Clear,0,2013-08-06 13:13:00
8:33 AM,65.1,64.8,99,29.88,10.0,Calm,Calm,-,N/A,,Clear,0,2013-08-06 13:33:00
8:53 AM,68.2,65.7,92,29.87,10.0,Calm,Calm,-,N/A,,Clear,0,2013-08-06 13:53:00
9:13 AM,70.0,65.3,85,29.88,10.0,Calm,Calm,-,N/A,,Clear,0,2013-08-06 14:13:00
9:33 AM,70.5,64.6,81,29.89,10.0,South,3.5,-,N/A,,Clear,180,2013-08-06 14:33:00
9:53 AM,71.6,64.6,78,29.90,10.0,SW,3.5,-,N/A,,Clear,220,2013-08-06 14:53:00
10:13 AM,72.0,63.0,73,29.89,10.0,South,4.6,-,N/A,,Clear,190,2013-08-06 15:13:00
10:33 AM,72.9,64.8,76,29.89,10.0,Calm,Calm,-,N/A,,Clear,0,2013-08-06 15:33:00
10:52 AM,74.1,64.2,71,29.88,10.0,SSW,6.9,-,N/A,,Clear,200,2013-08-06 15:52:00
11:13 AM,75.9,65.5,70,29.86,10.0,South,4.6,-,N/A,,Clear,190,2013-08-06 16:13:00
11:33 AM,77.4,64.8,65,29.87,10.0,SW,9.2,-,N/A,,Clear,220,2013-08-06 16:33:00
11:53 AM,78.1,63.7,61,29.87,10.0,SW,6.9,-,N/A,,Clear,230,2013-08-06 16:53:00
12:13 PM,77.4,62.2,59,29.85,10.0,SW,5.8,-,N/A,,Clear,220,2013-08-06 17:13:00
12:33 PM,78.3,62.6,58,29.84,10.0,SSW,8.1,-,N/A,,Clear,210,2013-08-06 17:33:00
12:53 PM,79.0,62.8,57,29.82,10.0,South,10.4,-,N/A,,Clear,190,2013-08-06 17:53:00
1:13 PM,79.9,62.6,55,29.82,10.0,SSW,8.1,-,N/A,,Clear,200,2013-08-06 18:13:00
1:33 PM,80.2,62.2,54,29.82,10.0,South,6.9,-,N/A,,Clear,180,2013-08-06 18:33:00
1:53 PM,81.0,64.9,58,29.82,10.0,SSW,11.5,-,N/A,,Clear,210,2013-08-06 18:53:00
2:13 PM,81.0,65.1,58,29.82,10.0,SSW,10.4,-,N/A,,Clear,200,2013-08-06 19:13:00
2:33 PM,81.5,65.8,59,29.82,10.0,SSW,8.1,-,N/A,,Clear,210,2013-08-06 19:33:00
2:53 PM,81.9,66.2,59,29.82,10.0,SSW,6.9,-,N/A,,Clear,210,2013-08-06 19:53:00
3:13 PM,81.7,65.5,58,29.82,10.0,SSW,9.2,-,N/A,,Clear,200,2013-08-06 20:13:00
3:33 PM,82.0,65.8,58,29.82,10.0,SSW,10.4,-,N/A,,Clear,210,2013-08-06 20:33:00
3:53 PM,81.7,65.7,58,29.82,10.0,SSW,10.4,-,N/A,,Scattered Clouds,200,2013-08-06 20:53:00
4:13 PM,82.4,66.2,58,29.81,10.0,SSW,11.5,16.1,N/A,,Scattered Clouds,210,2013-08-06 21:13:00
4:33 PM,82.4,66.6,59,29.81,10.0,SSW,8.1,-,N/A,,Clear,210,2013-08-06 21:33:00
4:53 PM,82.4,65.8,57,29.82,10.0,SW,8.1,-,N/A,,Scattered Clouds,220,2013-08-06 21:53:00
5:13 PM,82.0,65.7,57,29.82,10.0,SW,10.4,-,N/A,,Scattered Clouds,230,2013-08-06 22:13:00
5:33 PM,81.5,66.0,59,29.82,10.0,SW,9.2,16.1,N/A,,Scattered Clouds,230,2013-08-06 22:33:00
5:53 PM,81.5,67.3,62,29.81,10.0,SW,6.9,-,N/A,,Mostly Cloudy,230,2013-08-06 22:53:00
6:13 PM,81.0,68.4,65,29.80,10.0,SW,5.8,-,N/A,,Scattered Clouds,220,2013-08-06 23:13:00
6:33 PM,81.0,69.1,67,29.80,10.0,SW,8.1,-,N/A,,Mostly Cloudy,230,2013-08-06 23:33:00
6:53 PM,81.0,69.4,68,29.80,10.0,SW,5.8,-,N/A,,Scattered Clouds,230,2013-08-06 23:53:00
7:13 PM,80.6,68.5,67,29.80,10.0,SW,6.9,-,N/A,,Clear,230,2013-08-07 00:13:00
7:33 PM,79.3,67.8,68,29.78,10.0,SSW,5.8,-,N/A,,Clear,210,2013-08-07 00:33:00
7:53 PM,77.9,67.3,70,29.77,10.0,SSW,5.8,-,N/A,,Clear,210,2013-08-07 00:53:00
8:13 PM,76.6,66.7,71,29.77,10.0,SSW,6.9,-,N/A,,Clear,210,2013-08-07 01:13:00
8:33 PM,75.4,66.6,74,29.78,10.0,SW,5.8,-,N/A,,Clear,230,2013-08-07 01:33:00
8:53 PM,75.2,66.6,74,29.78,10.0,SSW,5.8,-,N/A,,Clear,200,2013-08-07 01:53:00
9:13 PM,73.9,66.9,79,29.79,10.0,SW,5.8,-,N/A,,Clear,220,2013-08-07 02:13:00
9:33 PM,73.9,67.1,79,29.80,10.0,SW,5.8,-,N/A,,Clear,220,2013-08-07 02:33:00
9:53 PM,73.6,68.2,83,29.79,10.0,SSW,5.8,-,N/A,,Clear,210,2013-08-07 02:53:00
10:13 PM,72.9,69.1,88,29.80,10.0,SW,6.9,-,N/A,,Clear,220,2013-08-07 03:13:00
10:33 PM,73.4,69.1,86,29.80,10.0,SW,6.9,-,N/A,,Clear,220,2013-08-07 03:33:00
10:53 PM,73.4,68.9,86,29.80,10.0,SW,6.9,-,N/A,,Clear,220,2013-08-07 03:53:00
11:13 PM,73.0,68.4,85,29.79,10.0,SSW,8.1,-,N/A,,Clear,210,2013-08-07 04:13:00
11:33 PM,73.0,67.8,84,29.81,10.0,NNW,11.5,16.1,N/A,,Scattered Clouds,340,2013-08-07 04:33:00
11:54 PM,74.1,66.0,76,29.82,10.0,WNW,8.1,-,N/A,,Scattered Clouds,300,2013-08-07 04:54:00